#timestamp,LO_Frequency,Hit,StdDev 
1578744015.1,286046995.2,N
1578744016.0,286046995.2,N
1578744035.8,286046996.1,N
1578744055.7,286046995.3,N
1578744075.5,286046995.0,N
1578744095.3,286046995.9,N
1578744115.2,286046997.8,N
1578744135.0,286046995.4,N
1578744135.9,286046995.4,N
1578744155.8,286046996.6,N
1578744175.6,286046997.2,N
1578744195.4,286046999.3,N
1578744215.3,286046997.0,N
1578744235.1,286046997.9,N
1578744255.8,286046999.0,N
1578744275.7,286046998.8,N
1578744295.5,286046996.9,N
1578744315.4,286046997.0,N
1578744335.2,286047001.2,N
1578744355.0,286047001.5,N
1578744355.9,286047001.5,N
1578744375.8,286047002.3,N
1578744395.6,286046998.9,N
1578744415.4,286047001.0,N
1578744435.3,286046996.6,N
1578744455.1,286046996.5,N
1578744475.9,286046998.9,N
1578744495.7,286046999.5,N
1578744515.5,286046996.5,N
1578744535.4,286046999.4,N
1578744555.2,286047000.1,N
1578744575.0,286047000.8,N
1578744575.9,286047000.8,N
1578744595.8,286046998.6,N
1578744615.6,286046999.5,N
1578744635.5,286047000.8,N
1578744655.3,286046998.5,N
1578744675.1,286047001.2,N
1578744695.9,286046999.9,N
1578744715.7,286047000.7,N
1578744735.6,286047001.2,N
1578744755.4,286046999.0,N
1578744775.2,286046997.6,N
1578744795.1,286046999.4,N
1578744796.0,286046999.4,N
1578744815.8,286046996.9,N
1578744835.6,286046997.7,N
1578744855.5,286046994.9,Y
1578744875.3,286046998.0,P
1578744895.2,286046997.2,P
1578744915.9,286046995.5,P
1578744935.7,286046994.9,Y
1578744955.6,286046998.2,P
1578744975.4,286046999.9,N
1578744995.2,286046998.8,N
1578745015.1,286046998.6,N
1578745016.0,286046998.6,N
1578745035.8,286046998.4,N
1578745055.7,286046998.7,N
1578745075.5,286046998.4,N
1578745095.3,286046998.5,N
1578745115.2,286047001.2,N
1578745135.0,286046996.6,Y
1578745135.9,286046996.6,P
1578745155.8,286047001.8,N
1578745175.6,286047002.5,N
1578745195.4,286047001.7,N
1578745215.3,286047003.7,N
1578745235.1,286047003.4,N
1578745255.8,286047002.9,N
1578745275.7,286047007.5,Y
1578745295.5,286047005.6,P
1578745315.4,286047005.0,N
1578745335.2,286047007.3,P
1578745355.0,286047007.0,Y
1578745355.9,286047007.0,P
1578745375.8,286047002.8,N
1578745395.6,286047002.5,N
1578745415.5,286046998.2,N
1578745435.3,286047000.4,N
1578745455.1,286047001.1,N
1578745475.9,286047001.7,N
1578745495.7,286047002.2,N
1578745515.5,286047000.9,N
1578745535.4,286046998.5,N
1578745555.2,286047000.5,N
1578745575.1,286047000.4,N
1578745576.0,286047000.4,N
1578745595.8,286046998.5,N
1578745615.6,286046999.4,N
1578745635.5,286046998.2,N
1578745655.3,286047000.5,N
1578745675.1,286047000.6,N
1578745695.9,286047002.7,N
1578745715.7,286046999.7,N
1578745735.6,286047000.9,N
1578745755.4,286046999.7,N
1578745775.2,286046999.8,N
1578745795.1,286047004.1,N
1578745796.0,286047004.1,N
1578745815.8,286047002.5,N
1578745835.6,286047002.3,N
1578745855.5,286047000.9,N
1578745875.3,286046996.8,N
1578745895.2,286046997.2,N
1578745915.9,286046999.1,N
1578745935.7,286046998.1,N
1578745955.6,286046998.6,N
1578745975.4,286046999.3,N
1578745995.2,286046999.0,N
1578746015.1,286046996.8,N
1578746016.0,286046996.8,N
1578746035.8,286047000.7,N
1578746055.7,286046998.2,N
1578746075.5,286046998.3,N
1578746095.3,286046998.8,N
1578746115.2,286046998.2,N
1578746135.0,286046998.1,N
1578746135.9,286046998.1,N
1578746155.7,286047000.3,N
1578746175.6,286047000.8,N
1578746195.4,286047001.6,N
1578746215.3,286047002.8,N
1578746235.1,286047000.1,N
1578746236.0,286047000.1,N
1578746255.8,286047004.0,N
1578746275.7,286047003.7,N
1578746295.5,286047004.1,N
1578746315.4,286047003.5,N
1578746335.2,286047001.4,N
1578746355.0,286047001.9,N
1578746355.9,286047001.9,N
1578746375.8,286047002.7,N
1578746395.6,286047000.1,N
1578746415.4,286047002.1,N
1578746435.3,286047004.2,N
1578746455.1,286047002.6,N
1578746475.9,286046999.7,N
1578746495.7,286047001.0,N
1578746515.5,286047001.2,N
1578746535.4,286046999.4,N
1578746555.2,286047002.4,N
1578746575.1,286046999.7,N
1578746576.0,286046999.7,N
1578746595.8,286047001.5,N
1578746615.6,286047002.5,N
1578746635.5,286047002.7,N
1578746655.3,286047001.7,N
1578746675.1,286047003.2,N
1578746695.9,286047003.4,N
1578746715.7,286047005.8,Y
1578746735.6,286047002.8,P
1578746755.4,286047002.2,P
1578746775.2,286047002.4,P
1578746795.1,286047000.8,N
1578746796.0,286047000.8,N
1578746815.8,286046995.4,Y
1578746835.7,286046994.5,P
1578746855.5,286046994.3,N
1578746875.3,286046994.2,N
1578746895.2,286046994.4,N
1578746915.0,286046992.3,N
1578746915.9,286046992.3,N
1578746935.7,286046993.2,N
1578746955.6,286046993.6,N
1578746975.4,286046995.9,N
1578746995.3,286046993.5,N
1578747015.1,286046993.3,N
1578747016.0,286046993.3,N
1578747035.8,286046996.0,N
1578747055.7,286046995.3,N
1578747075.5,286046998.0,N
1578747095.3,286046999.6,N
1578747115.2,286046994.9,N
1578747135.0,286046997.8,N
1578747135.9,286046997.8,N
1578747155.8,286046994.9,N
1578747175.6,286046997.6,N
1578747195.4,286046996.1,N
1578747215.3,286046995.0,N
1578747235.1,286046996.4,N
1578747255.8,286046993.3,N
1578747275.7,286046995.0,N
1578747295.5,286046996.9,N
1578747315.4,286046999.2,N
1578747335.2,286046997.1,N
1578747355.0,286046999.5,N
1578747355.9,286046999.5,N
1578747375.8,286046996.8,N
1578747395.6,286046999.4,N
1578747415.5,286047000.5,N
1578747435.3,286047000.6,N
1578747455.1,286047001.0,N
1578747475.9,286047000.9,N
1578747495.7,286047000.3,N
1578747515.5,286046998.3,N
1578747535.4,286046999.6,N
1578747555.2,286047000.8,N
1578747575.1,286046999.3,N
1578747576.0,286046999.3,N
1578747595.8,286046998.8,N
